Theta_e
319 316 311 311 297 297 291 295 300 301 301 304 308 304 304 306 305 300 319 331 334 337 341 344 347 348 348 347 346 346 346 344 343 342 341 340 339 338 336 335 336 336 333 332 333 333 333 332 331
316 314 310 304 293 286 286 296 299 299 302 303 306 306 304 304 321 317 320 330 336 338 340 342 344 347 348 347 346 346 345 345 341 341 340 339 337 336 335 335 334 334 334 332 332 332 331 330 329
310 311 305 299 292 287 287 296 297 300 302 300 302 304 308 314 321 319 321 334 336 337 339 341 343 347 348 347 346 345 344 344 343 341 339 338 337 336 334 333 333 333 333 332 332 330 329 329 328
303 306 302 295 291 295 294 294 295 297 300 303 304 301 318 326 323 322 332 335 334 335 337 339 344 347 347 346 346 346 344 344 344 343 340 337 336 336 333 334 334 332 331 331 330 329 328 328 328
303 299 291 288 290 295 295 294 294 295 297 300 302 301 313 325 320 332 333 335 332 332 333 339 342 345 346 346 345 345 343 343 344 343 341 338 337 337 334 333 334 332 332 331 329 328 328 328 327
296 293 286 284 287 292 292 294 295 294 296 299 297 297 314 324 324 322 332 332 334 331 333 339 336 339 343 344 344 343 343 342 342 342 340 339 338 337 335 334 335 332 332 330 329 328 328 327 327
292 288 284 283 286 289 292 295 293 293 293 296 297 296 309 306 319 319 328 331 332 332 333 335 337 337 336 339 339 341 341 341 340 340 339 337 335 335 334 334 333 331 331 328 328 327 327 327 328
293 290 286 283 284 286 292 294 294 295 293 299 299 304 301 306 315 326 328 329 329 331 331 332 335 336 337 338 334 335 336 336 338 337 334 332 330 331 329 326 330 332 330 328 328 327 327 327 328
296 288 284 285 287 288 294 293 296 298 294 296 299 305 304 303 306 313 324 327 327 329 329 332 334 337 337 333 332 330 331 332 332 331 328 326 323 324 323 325 326 329 331 330 328 328 328 329 329
291 285 287 291 291 291 294 293 294 294 294 294 297 302 303 302 300 300 306 316 326 329 329 333 332 334 334 336 331 331 332 333 331 328 326 322 320 320 321 320 324 326 328 329 330 330 329 326 320
292 286 292 293 296 296 295 294 295 293 290 293 294 298 303 302 304 305 305 307 314 326 329 333 332 333 334 334 332 330 329 329 325 324 322 320 320 318 318 318 320 321 318 321 324 322 320 319 317
289 294 295 297 297 296 294 296 293 294 294 298 298 301 301 301 301 303 306 309 311 316 326 331 332 333 334 334 332 331 329 327 324 322 322 319 317 316 316 317 317 318 319 317 315 314 315 315 317
291 293 296 297 297 295 297 294 293 293 296 298 299 299 298 299 300 302 305 307 310 312 315 324 331 332 333 332 332 329 329 327 325 323 322 320 317 316 316 316 316 316 316 315 314 313 314 315 317
294 294 294 296 296 296 294 292 294 295 297 296 297 296 297 297 298 301 304 305 307 310 312 316 325 330 331 333 332 330 328 327 324 323 323 320 319 317 317 316 316 316 316 316 315 315 315 316 317
295 290 291 293 295 294 295 290 290 295 296 294 294 294 296 297 298 299 303 304 306 308 311 313 317 329 329 330 331 330 328 327 324 324 322 321 319 318 318 317 316 317 317 317 316 316 317 316 317
289 287 283 291 294 295 292 283 293 295 294 292 293 294 295 296 298 300 302 304 305 306 308 312 318 324 329 329 330 330 329 327 325 324 324 323 321 319 317 317 316 316 315 316 316 317 320 320 316
285 279 282 286 293 293 290 286 294 294 292 293 294 294 294 296 297 299 303 304 305 306 307 309 315 322 327 328 330 330 329 327 326 324 323 324 321 319 317 316 316 316 315 315 316 316 316 314 316
278 279 282 283 289 291 287 289 292 292 293 293 294 294 294 296 298 302 305 306 305 305 307 310 314 322 327 328 329 329 328 328 327 324 324 323 322 320 318 316 316 316 315 315 316 315 316 317 320
285 283 281 285 290 289 288 289 289 291 292 292 293 293 295 296 300 302 304 306 306 306 308 308 309 317 324 326 326 326 325 325 324 324 323 322 322 321 319 317 316 316 316 316 317 317 316 318 322
286 281 280 285 290 290 288 285 288 289 291 293 293 293 294 296 298 300 301 304 304 305 306 306 308 312 319 325 327 327 326 325 324 323 323 323 322 322 321 320 319 318 317 317 317 317 317 318 321
282 279 277 283 287 289 285 280 284 287 291 293 294 295 294 295 296 297 298 300 301 302 303 304 306 309 312 318 326 323 324 324 323 322 322 322 322 322 322 321 320 319 319 318 317 318 318 316 317
281 287 285 285 283 276 286 272 275 283 287 290 292 292 293 294 295 296 296 297 299 300 303 304 305 306 309 311 323 319 318 320 322 322 324 323 324 323 322 323 323 322 322 321 319 319 319 320 317
283 289 285 284 283 282 278 279 275 283 281 286 290 292 293 294 294 294 295 295 298 299 300 302 304 305 306 308 315 318 316 321 321 322 319 319 319 320 321 321 320 320 321 319 316 315 315 315 313
288 286 286 284 283 271 274 274 273 276 281 284 288 290 291 292 293 293 295 295 295 297 298 300 302 303 304 305 308 309 309 311 312 312 311 311 312 313 313 315 315 315 315 314 314 313 312 312 312
286 281 270 269 269 272 279 275 276 281 286 286 287 286 289 291 291 292 292 292 293 294 295 298 299 300 302 303 305 306 306 306 306 306 307 307 307 308 309 311 311 312 313 313 313 312 312 311 310
283 282 273 267 270 273 280 274 278 286 286 288 285 285 287 288 289 290 291 291 292 293 294 295 297 298 300 301 303 304 305 305 305 305 305 305 305 306 308 308 309 309 311 311 312 311 310 310 311
282 279 283 279 273 274 276 280 284 287 285 283 283 284 284 286 287 288 290 291 291 292 292 294 295 296 297 299 300 301 303 303 303 303 304 303 304 305 305 306 306 306 307 308 308 307 306 306 306
284 286 278 276 266 267 274 277 278 283 283 282 281 281 282 284 286 287 289 289 290 291 292 293 294 295 296 297 298 299 299 300 301 301 301 301 301 302 302 303 303 303 304 304 305 303 302 301 301
283 281 282 280 278 274 272 275 282 284 285 282 281 283 282 283 285 286 287 288 289 290 290 291 292 293 293 295 296 296 296 297 297 297 297 297 298 299 299 299 299 299 299 300 300 298 298 297 295
283 281 282 276 274 277 277 276 285 285 285 283 282 284 284 284 284 285 286 286 287 287 289 289 290 291 291 292 294 294 295 295 294 294 294 295 295 296 296 296 295 295 295 295 295 294 294 293 292
Wind_Speed
9 8 1 5 5 5 4 6 3 6 7 5 8 3 3 3 3 5 4 8 8 15 12 12 18 19 18 18 18 17 16 17 17 16 15 14 13 13 13 12 10 11 10 11 10 10 10 10 9
5 4 5 3 5 2 6 4 5 1 5 10 5 2 2 1 1 4 5 5 12 14 12 10 15 18 18 18 18 18 17 16 17 16 16 14 13 13 13 13 11 11 11 10 9 8 8 8 7
2 2 4 4 4 5 5 2 7 11 9 5 5 3 0 3 1 6 3 11 11 12 11 9 13 17 18 18 17 17 18 17 17 18 17 15 14 14 13 12 11 11 10 10 9 7 7 6 5
3 5 5 4 7 7 4 5 5 10 6 4 4 5 3 5 7 3 8 12 12 10 10 11 15 16 18 17 17 17 17 18 18 17 17 16 15 14 13 12 12 11 11 10 9 7 6 5 4
5 4 3 1 5 5 1 4 6 6 7 7 8 8 4 6 10 6 7 8 10 7 5 9 14 17 16 17 16 16 17 17 18 17 15 16 15 13 13 13 12 12 11 10 9 7 6 4 3
5 3 3 3 4 4 4 6 7 7 6 7 10 8 3 7 18 8 4 5 7 7 7 9 8 12 14 15 15 15 16 17 16 16 15 15 15 13 13 11 11 11 10 9 8 7 6 5 3
7 5 3 2 4 4 6 11 4 7 8 7 7 2 3 15 15 8 3 4 4 5 6 6 6 7 10 11 12 12 13 16 14 15 16 14 14 12 11 12 10 10 9 8 7 5 5 4 4
5 4 3 2 1 1 5 8 2 5 5 10 6 7 6 8 11 7 5 4 4 4 4 5 6 5 5 7 10 10 9 11 13 13 12 11 9 9 9 13 10 10 9 8 7 6 5 5 5
3 5 1 2 4 5 5 6 4 4 3 4 8 5 7 12 9 7 4 5 1 2 4 5 6 7 7 5 7 9 10 11 11 11 12 10 5 7 8 9 12 11 8 8 8 7 7 6 6
5 4 2 0 0 3 5 1 4 6 8 6 13 17 16 9 8 10 9 7 7 7 5 7 7 9 9 6 6 5 6 5 5 5 6 4 6 5 5 6 12 12 8 7 8 8 7 6 3
2 3 1 3 1 3 4 5 4 5 3 5 10 13 16 11 12 11 10 8 11 7 8 11 9 10 10 9 6 4 4 5 3 5 5 5 4 4 4 3 3 3 5 3 4 4 3 4 3
3 3 1 2 3 3 5 5 3 8 4 6 7 9 8 13 15 13 11 10 12 11 10 10 11 12 13 8 8 7 6 6 5 5 6 4 3 4 4 3 4 4 3 4 3 3 4 5 5
3 3 5 5 2 1 1 6 3 5 6 7 8 11 12 11 13 15 9 8 9 9 10 11 10 15 12 10 9 8 8 7 7 7 6 4 4 4 4 4 3 4 3 3 4 4 4 5 5
1 2 5 3 5 1 4 5 4 6 7 9 14 14 13 12 14 14 13 14 11 11 10 10 12 11 13 12 12 9 8 10 7 7 8 8 5 5 5 4 4 4 4 4 4 4 4 4 4
1 3 4 4 6 4 5 3 2 5 7 11 13 14 17 16 13 10 12 14 13 11 12 10 11 11 8 15 13 10 9 9 9 8 9 9 7 6 6 5 5 5 4 5 4 4 4 4 4
5 5 3 2 7 3 4 5 3 9 10 11 13 14 17 17 16 14 13 12 13 13 11 12 9 12 13 11 10 9 8 9 9 8 8 11 11 8 6 6 5 5 4 4 4 4 5 4 4
6 1 2 7 1 3 5 4 5 7 7 13 15 13 16 15 16 15 14 11 13 13 13 12 11 11 12 13 10 11 11 9 8 9 9 12 11 9 7 5 5 5 4 4 4 4 3 4 4
2 1 2 5 4 4 3 2 7 7 11 14 13 14 13 14 16 18 16 15 14 12 12 10 9 11 9 9 10 9 10 10 9 9 10 12 9 9 7 5 5 5 4 4 4 5 4 5 5
2 1 3 4 3 3 3 1 5 7 11 13 14 13 12 15 14 15 15 13 12 11 12 11 9 10 6 8 9 9 11 9 8 8 12 11 10 10 9 5 5 5 5 6 5 3 5 4 3
3 1 4 5 4 3 3 5 3 5 6 12 12 12 12 15 15 17 18 16 14 12 12 12 11 7 5 6 8 8 9 9 11 9 10 10 10 10 9 8 7 7 4 5 5 4 2 3 3
2 4 2 5 5 2 5 3 4 3 5 12 11 11 13 14 15 18 19 18 16 15 13 12 11 8 5 8 7 2 1 6 6 8 6 6 5 6 8 8 5 6 5 5 4 4 5 4 2
3 5 4 3 3 2 4 5 5 5 5 10 12 13 13 15 15 16 20 20 19 17 15 14 12 11 10 7 6 9 7 5 4 5 4 5 6 5 4 4 4 4 3 4 3 1 2 3 2
6 5 3 2 3 1 5 1 8 5 6 8 10 11 11 12 14 16 16 18 17 17 15 13 12 14 16 15 9 2 5 2 3 6 9 7 6 6 5 5 5 3 5 6 6 5 5 2 1
3 2 4 1 0 3 2 5 7 2 4 6 6 7 8 11 12 12 12 14 16 17 17 15 15 15 20 20 16 14 12 7 8 9 9 7 7 7 10 7 9 9 9 8 6 6 7 5 4
5 5 4 6 5 5 4 2 9 4 2 2 7 7 7 6 9 11 12 12 14 16 17 15 17 19 18 20 17 13 18 17 14 14 10 11 9 8 10 11 9 8 9 9 8 6 7 4 4
2 4 5 5 2 5 2 5 6 4 5 2 2 4 6 6 7 10 11 9 10 12 15 15 17 18 20 19 16 15 17 13 10 14 11 9 9 9 11 10 8 9 8 7 6 5 4 4 3
1 2 1 3 3 1 3 5 6 5 5 1 2 4 5 6 7 6 7 10 11 11 12 11 13 15 14 13 11 13 14 15 9 13 11 10 9 8 7 7 9 8 7 6 5 4 3 3 2
2 4 3 3 2 5 5 5 6 6 8 6 4 2 2 4 6 6 6 8 9 10 10 10 9 10 9 9 9 11 12 12 9 10 11 10 8 8 7 9 7 7 7 6 6 4 4 4 3
1 1 2 3 4 3 3 7 6 8 8 9 7 5 1 3 3 4 5 5 4 5 6 9 11 11 10 8 8 10 10 9 9 11 10 8 8 7 7 8 8 8 7 6 5 6 5 5 4
1 3 4 4 4 3 1 9 2 7 7 8 7 6 4 2 1 3 5 5 7 8 9 8 7 9 7 7 10 11 10 11 11 10 10 9 10 9 8 8 8 6 6 6 6 6 5 5 6
Wind_Direction
332 316 55 39 52 63 257 257 275 310 351 330 300 207 210 136 169 229 306 167 137 154 161 165 164 163 160 157 154 156 151 154 147 140 140 140 140 138 138 139 143 149 142 131 127 115 112 108 105
327 330 39 80 91 97 263 256 248 212 292 304 294 246 7 230 58 92 105 185 155 155 160 163 164 164 162 160 161 160 160 158 157 148 146 145 146 144 147 144 154 143 145 139 127 120 115 111 109
309 28 84 105 132 196 229 272 344 314 299 330 305 72 141 355 330 178 250 146 151 160 162 161 163 167 163 163 166 168 166 166 163 155 150 150 153 154 156 152 159 163 143 138 135 134 128 123 120
73 18 34 106 224 247 216 340 326 331 324 318 335 303 42 13 333 296 126 142 148 159 167 161 164 166 165 170 172 175 174 173 168 165 159 154 158 160 161 164 156 162 161 149 146 147 143 138 134
30 56 79 224 264 275 345 355 313 343 322 337 325 332 27 19 359 37 105 133 145 150 154 170 169 165 168 174 178 181 182 180 174 167 157 159 158 159 165 171 165 170 164 158 157 160 156 163 165
42 85 88 230 253 287 45 352 326 349 318 320 13 339 67 14 8 348 38 122 136 147 149 173 174 172 177 175 182 188 188 188 180 170 156 162 158 166 166 161 174 173 164 169 168 172 175 189 200
119 102 201 201 292 352 359 327 47 327 310 348 305 290 40 11 351 348 63 75 110 134 152 168 175 178 172 176 178 190 199 191 179 164 159 165 163 164 167 178 179 175 174 182 181 189 207 222 237
99 91 144 43 71 261 343 345 337 15 293 309 321 3 343 324 346 353 360 115 131 147 165 173 169 173 175 184 176 176 193 177 170 163 156 160 165 165 171 188 181 180 189 194 196 208 233 254 268
107 64 139 2 3 294 336 8 315 283 293 337 0 354 299 306 331 357 354 335 110 179 223 181 181 186 184 175 179 171 174 172 167 156 158 163 163 173 165 192 199 201 190 206 211 223 234 250 276
72 98 140 230 105 302 278 328 318 0 344 349 341 346 339 326 357 4 347 311 264 210 211 206 189 189 192 185 170 166 171 166 155 156 170 163 165 160 155 172 207 206 189 208 228 235 248 272 278
14 125 192 202 322 314 312 348 335 359 30 356 323 335 356 354 0 1 349 335 318 269 237 205 190 194 191 187 171 168 167 158 150 168 175 173 159 163 160 161 190 193 213 216 235 261 264 253 255
86 28 84 279 316 320 327 319 29 66 307 311 330 329 342 357 347 341 333 331 336 331 263 239 192 198 201 188 179 181 175 164 161 174 181 165 161 173 175 175 185 199 193 220 230 256 261 259 257
62 345 331 317 293 358 303 305 194 24 345 340 344 354 352 347 340 331 316 317 317 326 321 302 235 202 203 193 189 183 177 175 175 175 178 171 167 177 175 200 193 204 187 212 239 238 243 257 260
349 307 285 305 321 55 9 3 82 336 333 3 3 349 342 341 335 323 327 323 322 313 308 306 291 245 208 200 198 185 180 178 176 183 186 177 177 181 186 194 203 209 196 214 213 222 235 245 249
27 51 352 2 342 350 314 33 38 291 345 10 356 347 338 334 330 322 308 308 312 303 299 293 298 257 223 206 197 193 184 183 182 187 186 182 181 192 189 195 197 215 204 210 222 235 237 245 242
53 55 33 312 355 320 11 307 345 17 10 356 354 343 338 326 319 321 311 306 312 305 299 293 291 278 219 208 192 199 193 186 185 189 193 192 185 187 191 194 195 210 200 203 200 220 229 219 219
11 58 356 324 85 324 45 288 50 17 1 347 337 336 336 322 327 321 317 316 313 310 302 299 290 275 224 212 201 193 193 181 206 189 195 192 184 183 180 186 202 196 197 196 202 231 223 235 236
242 49 290 260 299 358 318 350 12 356 357 344 336 337 334 330 331 337 325 331 328 316 309 301 292 270 225 215 208 200 192 188 194 191 196 187 181 176 183 193 200 190 194 212 207 218 235 225 228
157 214 266 261 264 298 284 42 3 349 0 346 345 341 332 333 327 340 338 345 332 328 325 329 316 311 214 210 213 201 201 177 186 197 195 182 179 179 186 191 194 187 199 210 208 206 228 254 234
206 141 288 288 265 241 355 327 307 360 353 356 347 346 352 334 350 349 350 346 341 339 342 337 333 309 303 218 225 218 200 176 185 184 184 185 178 183 188 194 201 197 199 218 225 211 242 244 198
209 169 215 227 306 67 314 15 333 351 355 13 7 357 351 349 357 355 353 346 342 343 344 339 351 346 303 302 214 233 126 162 190 170 174 178 190 191 196 199 198 193 188 207 208 204 218 235 219
302 192 172 261 342 313 7 292 306 329 332 17 7 2 352 351 355 3 355 347 344 344 345 350 359 12 2 335 212 171 204 213 198 156 150 105 102 90 131 160 165 160 152 139 110 115 208 171 189
235 165 238 223 257 81 352 3 267 333 330 336 358 354 356 356 358 4 360 348 344 347 350 353 4 24 30 24 52 9 79 167 195 102 101 102 89 87 89 98 91 103 121 102 94 67 24 11 66
295 305 33 353 255 35 235 115 285 285 261 310 307 332 347 348 347 356 351 355 352 349 352 2 15 24 37 30 28 69 63 58 77 86 80 62 66 70 59 52 91 86 77 81 70 69 54 36 47
46 50 343 355 7 221 149 79 245 242 289 250 303 337 344 338 345 352 351 355 356 354 353 360 15 28 35 40 37 48 71 73 63 71 69 66 53 43 54 50 37 59 63 75 70 64 66 40 28
42 119 147 254 270 278 142 228 257 182 93 168 323 350 353 350 4 358 352 357 359 358 358 2 14 23 29 35 25 42 50 59 52 65 68 71 63 48 43 51 46 50 51 57 66 61 51 33 46
107 95 173 89 331 329 259 287 300 165 140 126 322 6 3 359 359 355 353 349 2 6 6 3 21 23 23 36 34 40 42 54 54 62 59 58 50 53 47 52 41 41 34 42 48 58 49 63 60
141 158 54 17 3 296 284 264 242 222 200 173 220 273 2 13 10 356 356 2 358 353 4 10 30 39 25 22 30 52 48 44 39 56 59 60 57 55 51 53 42 41 31 27 42 45 35 50 34
81 95 106 135 156 234 303 266 211 220 183 173 197 199 178 72 5 5 359 5 359 1 12 21 26 33 30 33 45 51 53 55 51 53 47 47 54 53 50 53 50 42 31 24 42 39 31 44 35
145 234 164 142 220 234 247 270 310 214 180 156 185 184 160 142 70 11 7 4 22 16 24 24 27 35 27 23 45 41 44 47 46 44 48 48 47 40 46 51 51 53 47 37 44 42 28 33 29